H1 CPF 2 NER 2024 3 9 9 069 01 glonass106 H2 0705201 9106 32275 2024 3 9 0 0 0 2024 3 12 23 45 0 900 1 1 0 0 0 1 H9 10 0 60378 0.00000 0 22878259.203 -5721350.398 9727718.273 10 0 60378 900.00000 0 23869110.770 -6024675.686 6689887.728 10 0 60378 1800.00000 0 24457786.993 -6340574.187 3522131.689 10 0 60378 2700.00000 0 24637532.466 -6610952.151 285971.696 10 0 60378 3600.00000 0 24415378.358 -6778424.249 -2955740.766 10 0 60378 4500.00000 0 23811768.602 -6788970.473 -6140046.530 10 0 60378 5400.00000 0 22859641.731 -6594456.921 -9205103.098 10 0 60378 6300.00000 0 21603007.338 -6154913.190 -12091386.933 10 0 60378 7200.00000 0 20095077.516 -5440469.505 -14742849.931 10 0 60378 8100.00000 0 18396031.944 -4432870.969 -17108007.523 10 0 60378 9000.00000 0 16570510.696 -3126504.278 -19140937.252 10 0 60378 9900.00000 0 14684940.067 -1528892.730 -20802168.588 10 0 60378 10800.00000 0 12804803.336 339362.329 -22059447.083 10 0 60378 11700.00000 0 10991970.526 2445192.288 -22888358.458 10 0 60378 12600.00000 0 9302198.437 4744199.941 -23272800.949 10 0 60378 13500.00000 0 7782904.891 7182279.680 -23205297.158 10 0 60378 14400.00000 0 6471309.533 9697652.912 -22687139.604 10 0 60378 15300.00000 0 5393018.144 12223234.984 -21728367.211 10 0 60378 16200.00000 0 4561108.892 14689236.128 -20347573.046 10 0 60378 17100.00000 0 3975758.011 17025889.042 -18571546.691 10 0 60378 18000.00000 0 3624419.866 19166190.139 -16434757.683 10 0 60378 18900.00000 0 3482553.199 21048540.736 -13978689.518 10 0 60378 19800.00000 0 3514862.435 22619178.291 -11251036.556 10 0 60378 20700.00000 0 3677001.187 23834296.218 -8304779.037 10 0 60378 21600.00000 0 3917665.598 24661763.653 -5197153.917 10 0 60378 22500.00000 0 4180988.492 25082373.120 -1988541.458 10 0 60378 23400.00000 0 4409132.521 25090563.734 1258710.503 10 0 60378 24300.00000 0 4544971.881 24694589.672 4481501.411 10 0 60378 25200.00000 0 4534748.362 23916126.992 7617207.783 10 0 60378 26100.00000 0 4330588.526 22789335.621 10604903.428 10 0 60378 27000.00000 0 3892774.707 21359416.290 13386545.834 10 0 60378 27900.00000 0 3191673.009 19680723.489 15908105.279 10 0 60378 28800.00000 0 2209236.075 17814514.079 18120614.469 10 0 60378 29700.00000 0 940016.432 15826426.361 19981118.337 10 0 60378 30600.00000 0 -608353.108 13783795.409 21453505.817 10 0 60378 31500.00000 0 -2415233.036 11752917.093 22509207.816 10 0 60378 32400.00000 0 -4447602.596 9796374.961 23127748.394 10 0 60378 33300.00000 0 -6661211.879 7970541.225 23297138.987 10 0 60378 34200.00000 0 -9002213.419 6323355.535 23014108.527 10 0 60378 35100.00000 0 -11409206.189 4892473.453 22284165.323 10 0 60378 36000.00000 0 -13815607.778 3703860.936 21121489.674 10 0 60378 36900.00000 0 -16152256.745 2770892.528 19548659.250 10 0 60378 37800.00000 0 -18350137.514 2093989.922 17596212.332 10 0 60378 38700.00000 0 -20343114.907 1660814.986 15302056.989 10 0 60378 39600.00000 0 -22070564.700 1447008.232 12710737.239 10 0 60378 40500.00000 0 -23479790.757 1417440.804 9872569.992 10 0 60378 41400.00000 0 -24528127.859 1527926.574 6842669.160 10 0 60378 42300.00000 0 -25184642.426 1727321.414 3679875.723 10 0 60378 43200.00000 0 -25431359.906 1959920.431 445614.515 10 0 60378 44100.00000 0 -25263967.370 2168051.258 -2797299.946 10 0 60378 45000.00000 0 -24691961.907 2294753.120 -5985885.025 10 0 60378 45900.00000 0 -23738238.582 2286427.748 -9058214.830 10 0 60378 46800.00000 0 -22438135.493 2095349.345 -11954624.192 10 0 60378 47700.00000 0 -20837976.176 1681926.842 -14618868.000 10 0 60378 48600.00000 0 -18993170.715 1016622.182 -16999213.219 10 0 60378 49500.00000 0 -16965955.315 81442.956 -19049442.340 10 0 60378 50400.00000 0 -14822864.991 -1129054.328 -20729748.974 10 0 60378 51300.00000 0 -12632045.075 -2607293.453 -22007508.512 10 0 60378 52200.00000 0 -10460513.662 -4332760.951 -22857909.368 10 0 60378 53100.00000 0 -8371488.886 -6272639.444 -23264432.975 10 0 60378 54000.00000 0 -6421891.991 -8382966.527 -23219173.637 10 0 60378 54900.00000 0 -4660129.610 -10610271.983 -22722992.319 10 0 60378 55800.00000 0 -3124246.977 -12893626.128 -21785501.425 10 0 60378 56700.00000 0 -1840528.236 -15167014.935 -20424880.765 10 0 60378 57600.00000 0 -822601.422 -17361943.830 -18667527.918 10 0 60378 58500.00000 0 -71084.649 -19410162.285 -16547549.309 10 0 60378 59400.00000 0 426212.529 -21246396.012 -14106101.313 10 0 60378 60300.00000 0 693541.866 -22810972.966 -11390593.620 10 0 60378 61200.00000 0 765955.445 -24052233.376 -8453769.887 10 0 60378 62100.00000 0 687584.869 -24928622.845 -5352683.291 10 0 60378 63000.00000 0 509533.917 -25410380.595 -2147586.789 10 0 60378 63900.00000 0 287474.482 -25480751.759 1099240.083 10 0 60378 64800.00000 0 79048.214 -25136672.609 4324704.720 10 0 60378 65700.00000 0 -58815.396 -24388899.793 7466131.134 10 0 60378 66600.00000 0 -72550.143 -23261578.118 10462481.265 10 0 60378 67500.00000 0 85539.505 -21791265.154 13255543.649 10 0 60378 68400.00000 0 455021.611 -20025453.756 15791065.940 10 0 60378 69300.00000 0 1065426.659 -18020654.777 18019808.964 10 0 60378 70200.00000 0 1934765.459 -15840120.498 19898501.892 10 0 60378 71100.00000 0 3068538.264 -13551304.213 21390680.194 10 0 60378 72000.00000 0 4459277.501 -11223162.174 22467390.488 10 0 60378 72900.00000 0 6086644.124 -8923410.336 23107749.149 10 0 60378 73800.00000 0 7918074.395 -6715849.933 23299344.396 10 0 60378 74700.00000 0 9909950.873 -4657872.755 23038474.542 10 0 60378 75600.00000 0 12009249.611 -2798249.251 22330218.152 10 0 60378 76500.00000 0 14155595.659 -1175290.649 21188334.917 10 0 60378 77400.00000 0 16283641.931 184539.327 19634999.127 10 0 60378 78300.00000 0 18325672.931 1267506.374 17700370.709 10 0 60378 79200.00000 0 20214325.280 2072945.455 15422011.740 10 0 60378 80100.00000 0 21885311.897 2613045.458 12844159.346 10 0 60378 81000.00000 0 23280036.221 2912088.762 10016868.654 10 0 60378 81900.00000 0 24347987.262 3005178.648 6995042.051 10 0 60378 82800.00000 0 25048815.144 2936509.023 3837363.443 10 0 60378 83700.00000 0 25353999.941 2757250.204 605158.145 10 0 60378 84600.00000 0 25248043.781 2523140.837 -2638799.291 10 0 60378 85500.00000 0 24729135.795 2291888.331 -5831505.834 10 0 60379 0.00000 0 23809261.895 2120488.465 -8910954.966 10 0 60379 900.00000 0 22513754.188 2062578.086 -11817343.341 10 0 60379 1800.00000 0 20880300.127 2165933.702 -14494231.234 10 0 60379 2700.00000 0 18957451.297 2470221.919 -16889639.519 10 0 60379 3600.00000 0 16802695.326 3005097.597 -18957057.728 10 0 60379 4500.00000 0 14480171.132 3788730.463 -20656345.407 10 0 60379 5400.00000 0 12058122.857 4826822.948 -21954509.328 10 0 60379 6300.00000 0 9606198.509 6112161.344 -22826341.889 10 0 60379 7200.00000 0 7192705.507 7624720.016 -23254908.761 10 0 60379 8100.00000 0 4881936.937 9332315.273 -23231876.740 10 0 60379 9000.00000 0 2731679.110 11191782.583 -22757675.720 10 0 60379 9900.00000 0 791003.433 13150628.966 -21841491.729 10 0 60379 10800.00000 0 -901566.346 15149092.536 -20501091.085 10 0 60379 11700.00000 0 -2319436.089 17122524.113 -18762478.721 10 0 60379 12600.00000 0 -3448815.666 19003992.113 -16659396.877 10 0 60379 13500.00000 0 -4289050.214 20727002.439 -14232673.316 10 0 60379 14400.00000 0 -4852395.347 22228219.883 -11529431.146 10 0 60379 15300.00000 0 -5163246.602 23450077.191 -8602175.152 10 0 60379 16200.00000 0 -5256856.469 24343162.263 -5507772.108 10 0 60379 17100.00000 0 -5177593.862 24868283.074 -2306344.770 10 0 60379 18000.00000 0 -4976820.381 24998123.140 939898.720 10 0 60379 18900.00000 0 -4710473.927 24718417.555 4167876.917 10 0 60379 19800.00000 0 -4436462.725 24028599.737 7314864.550 10 0 60379 20700.00000 0 -4211980.841 22941891.385 10319714.856 10 0 60379 21600.00000 0 -4090859.578 21484831.637 13124050.471 10 0 60379 22500.00000 0 -4121067.531 19696265.106 15673399.279 10 0 60379 23400.00000 0 -4342465.622 17625831.195 17918252.885 10 0 60379 24300.00000 0 -4784912.547 15332018.014 19815027.117 10 0 60379 25200.00000 0 -5466801.076 12879862.266 21326906.158 10 0 60379 26100.00000 0 -6394087.403 10338391.090 22424554.232 10 0 60379 27000.00000 0 -7559854.925 7777912.379 23086681.633 10 0 60379 27900.00000 0 -8944431.378 5267266.008 23300454.615 10 0 60379 28800.00000 0 -10516055.093 2871149.878 23061741.727 10 0 60379 29700.00000 0 -12232063.174 647631.244 22375192.189 10 0 60379 30600.00000 0 -14040552.691 -1354054.073 21254144.956 10 0 60379 31500.00000 0 -15882446.124 -3095324.012 19720370.266 10 0 60379 32400.00000 0 -17693875.442 -4549619.363 17803648.431 10 0 60379 33300.00000 0 -19408785.729 -5703263.731 15541193.710 10 0 60379 34200.00000 0 -20961649.869 -6555779.564 12976933.978 10 0 60379 35100.00000 0 -22290180.957 -7119648.227 10160659.758 10 0 60379 36000.00000 0 -23337928.871 -7419525.237 7147058.725 10 0 60379 36900.00000 0 -24056652.019 -7490944.670 3994654.234 10 0 60379 37800.00000 0 -24408364.561 -7378568.272 764668.451 10 0 60379 38700.00000 0 -24366972.782 -7134053.930 -2480167.747 10 0 60379 39600.00000 0 -23919431.372 -6813634.295 -5676834.644 10 0 60379 40500.00000 0 -23066370.771 -6475508.627 -8763249.265 10 0 60379 41400.00000 0 -21822168.629 -6177158.723 -11679472.474 10 0 60379 42300.00000 0 -20214462.116 -5972703.060 -14368873.768 10 0 60379 43200.00000 0 -18283121.352 -5910401.502 -16779230.924 10 0 60379 44100.00000 0 -16078726.457 -6030416.388 -18863743.121 10 0 60379 45000.00000 0 -13660611.753 -6362924.971 -20581937.979 10 0 60379 45900.00000 0 -11094558.454 -6926663.209 -21900455.227 10 0 60379 46800.00000 0 -8450231.667 -7727962.730 -22793692.220 10 0 60379 47700.00000 0 -5798468.046 -8760322.084 -23244299.221 10 0 60379 48600.00000 0 -3208526.333 -10004530.922 -23243515.267 10 0 60379 49500.00000 0 -745414.434 -11429342.762 -22791338.384 10 0 60379 50400.00000 0 1532596.613 -12992668.975 -21896526.957 10 0 60379 51300.00000 0 3576169.258 -14643244.904 -20576432.127 10 0 60379 52200.00000 0 5346716.183 -16322699.229 -18856664.165 10 0 60379 53100.00000 0 6817762.376 -17967940.690 -16770598.824 10 0 60379 54000.00000 0 7975796.668 -19513762.771 -14358732.708 10 0 60379 54900.00000 0 8820578.099 -20895557.591 -11667899.599 10 0 60379 55800.00000 0 9364885.166 -22052025.248 -8750362.512 10 0 60379 56700.00000 0 9633719.465 -22927764.803 -5662798.813 10 0 60379 57600.00000 0 9662998.093 -23475637.690 -2465198.002 10 0 60379 58500.00000 0 9497790.865 -23658803.678 780306.207 10 0 60379 59400.00000 0 9190177.620 -23452343.179 4010646.481 10 0 60379 60300.00000 0 8796817.071 -22844396.996 7163051.077 10 0 60379 61200.00000 0 8376330.827 -21836775.007 10176267.141 10 0 60379 62100.00000 0 7986614.045 -20445007.676 12991753.749 10 0 60379 63000.00000 0 7682187.136 -18697837.821 15554821.085 10 0 60379 63900.00000 0 7511701.111 -16636173.675 17815693.265 10 0 60379 64800.00000 0 7515702.392 -14311546.838 19730474.181 10 0 60379 65700.00000 0 7724751.827 -11784139.406 21261997.768 10 0 60379 66600.00000 0 8157977.489 -9120462.422 22380546.566 10 0 60379 67500.00000 0 8822122.496 -6390782.141 23064425.148 10 0 60379 68400.00000 0 9711128.173 -3666400.783 23300377.864 10 0 60379 69300.00000 0 10806270.452 -1016904.366 23083843.272 10 0 60379 70200.00000 0 12076844.210 1492508.751 22419040.766 10 0 60379 71100.00000 0 13481367.402 3803508.467 21318887.872 10 0 60379 72000.00000 0 14969255.062 5866820.503 19804749.867 10 0 60379 72900.00000 0 16482893.644 7644031.043 17906026.348 10 0 60379 73800.00000 0 17960029.322 9108934.394 15659582.447 10 0 60379 74700.00000 0 19336370.540 10248368.584 13109035.261 10 0 60379 75600.00000 0 20548295.964 11062505.132 10303908.943 10 0 60379 76500.00000 0 21535554.308 11564581.948 7298674.429 10 0 60379 77400.00000 0 22243842.481 11780091.611 4151692.259 10 0 60379 78300.00000 0 22627153.545 11745460.192 924078.949 10 0 60379 79200.00000 0 22649795.302 11506273.192 -2321480.974 10 0 60379 80100.00000 0 22287994.122 11115124.228 -5521953.867 10 0 60379 81000.00000 0 21531015.906 10629178.048 -8615182.792 10 0 60379 81900.00000 0 20381756.433 10107551.483 -11541096.057 10 0 60379 82800.00000 0 18856775.818 9608623.684 -14242874.601 10 0 60379 83700.00000 0 16985774.957 9187389.654 -16668055.379 10 0 60379 84600.00000 0 14810535.371 8892969.268 -18769549.254 10 0 60379 85500.00000 0 12383366.310 8766377.154 -20506553.714 10 0 60380 0.00000 0 9765123.616 8838647.706 -21845342.918 10 0 60380 900.00000 0 7022881.004 9129394.504 -22759920.794 10 0 60380 1800.00000 0 4227353.679 9645864.907 -23232523.229 10 0 60380 2700.00000 0 1450176.120 10382530.007 -23253962.445 10 0 60380 3600.00000 0 -1238850.126 11321227.592 -22823805.268 10 0 60380 4500.00000 0 -3774426.445 12431852.649 -21950382.776 10 0 60380 5400.00000 0 -6098234.644 13673567.094 -20650630.903 10 0 60380 6300.00000 0 -8161119.845 14996478.667 -18949764.800 10 0 60380 7200.00000 0 -9924888.796 16343719.173 -16880792.855 10 0 60380 8100.00000 0 -11363649.565 17653835.431 -14483879.222 10 0 60380 9000.00000 0 -12464637.593 18863392.920 -11805566.687 10 0 60380 9900.00000 0 -13228494.394 19909682.846 -8897874.485 10 0 60380 10800.00000 0 -13668988.112 20733418.779 -5817288.281 10 0 60380 11700.00000 0 -13812188.559 21281309.034 -2623661.792 10 0 60380 12600.00000 0 -13695132.312 21508395.985 620948.411 10 0 60380 13500.00000 0 -13364035.062 21380063.117 3853491.950 10 0 60380 14400.00000 0 -12872127.537 20873624.532 7011153.529 10 0 60380 15300.00000 0 -12277207.283 19979429.185 10032577.146 10 0 60380 16200.00000 0 -11639010.583 18701432.669 12859061.253 10 0 60380 17100.00000 0 -11016516.272 17057211.836 15435701.180 10 0 60380 18000.00000 0 -10465295.976 15077421.060 17712456.294 10 0 60380 18900.00000 0 -10035023.058 12804712.460 19645121.117 10 0 60380 19800.00000 0 -9767245.670 10292164.776 21196181.715 10 0 60380 20700.00000 0 -9693517.891 7601286.112 22335541.084 10 0 60380 21600.00000 0 -9833967.729 4799673.367 23041099.952 10 0 60380 22500.00000 0 -10196362.190 1958425.235 23299182.321 10 0 60380 23400.00000 0 -10775708.765 -850584.229 23104797.975 10 0 60380 24300.00000 0 -11554410.128 -3557458.926 22461737.286 10 0 60380 25200.00000 0 -12502965.734 -6096947.413 21382496.714 10 0 60380 26100.00000 0 -13581191.118 -8410913.086 19888036.443 10 0 60380 27000.00000 0 -14739904.075 -10450506.175 18007374.720 10 0 60380 27900.00000 0 -15923007.283 -12177948.233 15777026.380 10 0 60380 28800.00000 0 -17069880.252 -13567855.766 13240296.072 10 0 60380 29700.00000 0 -18117980.336 -14608048.853 10446439.428 10 0 60380 30600.00000 0 -19005543.546 -15299811.900 7449708.079 10 0 60380 31500.00000 0 -19674271.490 -15657596.661 4308296.815 10 0 60380 32400.00000 0 -20071891.105 -15708180.977 1083213.285 10 0 60380 33300.00000 0 -20154478.944 -15489319.438 -2162907.774 10 0 60380 34200.00000 0 -19888451.627 -15047943.746 -5367022.400 10 0 60380 35100.00000 0 -19252137.864 -14437989.342 -8466903.400 10 0 60380 36000.00000 0 -18236865.191 -13717940.739 -11402350.236 10 0 60380 36900.00000 0 -16847514.941 -12948199.800 -14116358.960 10 0 60380 37800.00000 0 -15102521.404 -12188388.522 -16556229.209 10 0 60380 38700.00000 0 -13033314.416 -11494700.435 -18674586.746 10 0 60380 39600.00000 0 -10683227.920 -10917412.522 -20430301.747 10 0 60380 40500.00000 0 -8105919.400 -10498662.602 -21789285.319 10 0 60380 41400.00000 0 -5363365.332 -10270585.783 -22725149.203 10 0 60380 42300.00000 0 -2523515.424 -10253888.373 -23219716.273 10 0 60380 43200.00000 0 342297.614 -10456919.193 -23263372.388 10 0 60380 44100.00000 0 3162085.949 -10875277.409 -22855253.033 10 0 60380 45000.00000 0 5865959.679 -11491973.487 -22003261.303 10 0 60380 45900.00000 0 8388791.585 -12278136.811 -20723916.769 10 0 60380 46800.00000 0 10672683.744 -13194240.609 -19042037.905 10 0 60380 47700.00000 0 12669134.187 -14191793.113 -16990263.793 10 0 60380 48600.00000 0 14340814.225 -15215424.298 -14608423.848 10 0 60380 49500.00000 0 15662883.097 -16205280.702 -11942767.229 10 0 60380 50400.00000 0 16623785.708 -17099627.729 -9045066.445 10 0 60380 51300.00000 0 17225500.861 -17837549.742 -5971612.229 10 0 60380 52200.00000 0 17483230.297 -18361633.935 -2782119.073 10 0 60380 53100.00000 0 17424542.415 -18620524.275 461437.154 10 0 60380 54000.00000 0 17088007.530 -18571237.191 3696026.604 10 0 60380 54900.00000 0 16521383.019 -18181140.494 6858793.897 10 0 60380 55800.00000 0 15779425.781 -17429511.246 9888283.127 10 0 60380 56700.00000 0 14921425.121 -16308606.064 12725635.028 10 0 60380 57600.00000 0 14008560.939 -14824197.923 15315732.597 10 0 60380 58500.00000 0 13101199.316 -12995556.144 17608272.519 10 0 60380 59400.00000 0 12256240.012 -10854869.633 19558741.555 10 0 60380 60300.00000 0 11524627.902 -8446136.862 21129279.054 10 0 60380 61200.00000 0 10949133.240 -5823568.357 22289409.172 10 0 60380 62100.00000 0 10562494.045 -3049567.711 23016629.094 10 0 60380 63000.00000 0 10385998.480 -192374.532 23296842.404 10 0 60380 63900.00000 0 10428566.503 2676533.270 23124629.711 10 0 60380 64800.00000 0 10686369.094 5485170.715 22503351.684 10 0 60380 65700.00000 0 11143000.804 8163797.876 21445082.785 10 0 60380 66600.00000 0 11770198.267 10647579.421 19970376.965 10 0 60380 67500.00000 0 12529074.457 12879042.012 18107869.784 10 0 60380 68400.00000 0 13371816.902 14810228.283 15893724.270 10 0 60380 69300.00000 0 14243778.547 16404458.603 13370930.918 10 0 60380 70200.00000 0 15085873.400 17637628.056 10588474.946 10 0 60380 71100.00000 0 15837176.148 18498985.373 7600386.575 10 0 60380 72000.00000 0 16437616.097 18991362.032 4464692.554 10 0 60380 72900.00000 0 16830651.644 19130842.723 1242289.176 10 0 60380 73800.00000 0 16965812.183 18945892.053 -2004241.224 10 0 60380 74700.00000 0 16800999.656 18475974.791 -5211847.043 10 0 60380 75600.00000 0 16304451.920 17769728.482 -8318233.490 10 0 60380 76500.00000 0 15456284.527 16882766.236 -11263073.755 10 0 60380 77400.00000 0 14249545.063 15875202.864 -13989181.394 10 0 60380 78300.00000 0 12690734.862 14809009.136 -16443620.914 10 0 60380 79200.00000 0 10799775.211 13745305.971 -18578734.933 10 0 60380 80100.00000 0 8609418.531 12741712.695 -20353068.042 10 0 60380 81000.00000 0 6164128.217 11849861.015 -21732169.701 10 0 60380 81900.00000 0 3518472.963 11113179.174 -22689261.006 10 0 60380 82800.00000 0 735101.562 10565039.195 -23205752.770 10 0 60380 83700.00000 0 -2117618.447 10227344.790 -23271605.330 10 0 60380 84600.00000 0 -4968201.095 10109618.949 -22885523.385 10 0 60380 85500.00000 0 -7744774.077 10208629.334 -22054982.253 10 0 60381 0.00000 0 -10377829.857 10508567.003 -20796085.091 10 0 60381 900.00000 0 -12802883.681 10981771.168 -19133252.874 10 0 60381 1800.00000 0 -14962925.290 11589969.123 -17098754.466 10 0 60381 2700.00000 0 -16810567.685 12285979.844 -14732083.163 10 0 60381 3600.00000 0 -18309800.482 13015809.335 -12079192.808 10 0 60381 4500.00000 0 -19437276.661 13721049.569 -9191607.233 10 0 60381 5400.00000 0 -20183079.211 14341479.803 -6125420.099 10 0 60381 6300.00000 0 -20550936.136 14817760.218 -2940204.373 10 0 60381 7200.00000 0 -20557875.368 15094103.722 302147.202 10 0 60381 8100.00000 0 -20233334.758 15120812.436 3538627.836 10 0 60381 9000.00000 0 -19617765.317 14856570.945 6706344.681 10 0 60381 9900.00000 0 -18760787.284 14270398.635 9743744.608 10 0 60381 10800.00000 0 -17718977.511 13343177.759 12591813.356 10 0 60381 11700.00000 0 -16553382.137 12068691.906 15195224.281 10 0 60381 12600.00000 0 -15326860.006 10454130.222 17503414.013 10 0 60381 13500.00000 0 -14101369.179 8520035.302 19471564.037 10 0 60381 14400.00000 0 -12935311.037 6299696.088 21061469.261 10 0 60381 15300.00000 0 -11881043.727 3838010.364 22242277.032 10 0 60381 16200.00000 0 -10982669.264 1189863.574 22991082.734 10 0 60381 17100.00000 0 -10274186.878 -1581909.275 23293370.960 10 0 60381 18000.00000 0 -9778089.599 -4408894.525 23143294.226 10 0 60381 18900.00000 0 -9504462.423 -7219705.853 22543784.246 10 0 60381 19800.00000 0 -9450619.290 -9942717.892 21506493.854 10 0 60381 20700.00000 0 -9601293.621 -12508814.712 20051570.778 10 0 60381 21600.00000 0 -9929373.966 -14854039.815 18207267.495 10 0 60381 22500.00000 0 -10397153.551 -16922038.273 16009394.442 10 0 60381 23400.00000 0 -10958040.934 -18666190.091 13500626.786 10 0 60381 24300.00000 0 -11558659.637 -20051346.631 10729677.772 10 0 60381 25200.00000 0 -12141248.116 -21055098.314 7750354.308 10 0 60381 26100.00000 0 -12646258.710 -21668521.220 4620512.861 10 0 60381 27000.00000 0 -13015045.594 -21896371.978 1400935.848 10 0 60381 27900.00000 0 -13192527.929 -21756723.486 -1845849.601 10 0 60381 28800.00000 0 -13129715.182 -21280057.297 -5056787.298 10 0 60381 29700.00000 0 -12785987.427 -20507851.601 -8169518.118 10 0 60381 30600.00000 0 -12131033.506 -19490724.599 -11123592.409 10 0 60381 31500.00000 0 -11146364.519 -18286212.117 -13861644.766 10 0 60381 32400.00000 0 -9826338.057 -16956273.594 -16330508.088 10 0 60381 33300.00000 0 -8178649.017 -15564631.526 -18482245.259 10 0 60381 34200.00000 0 -6224265.412 -14174056.508 -20275078.436 10 0 60381 35100.00000 0 -3996810.771 -12843711.992 -21674198.219 10 0 60381 36000.00000 0 -1541417.886 -11626670.083 -22652437.359 10 0 60381 36900.00000 0 1086899.342 -10567702.332 -23190796.366 10 0 60381 37800.00000 0 3825289.203 -9701437.754 -23278811.248 10 0 60381 38700.00000 0 6605436.661 -9050964.784 -22914756.550 10 0 60381 39600.00000 0 9356171.291 -8626935.322 -22105679.924 10 0 60381 40500.00000 0 12006201.232 -8427207.925 -20867267.481 10 0 60381 41400.00000 0 14486860.401 -8437044.751 -19223542.315 10 0 60381 42300.00000 0 16734755.427 -8629853.655 -17206401.615 10 0 60381 43200.00000 0 18694202.794 -8968444.024 -14855000.835 10 0 60381 44100.00000 0 20319355.142 -9406743.314 -12214996.301 10 0 60381 45000.00000 0 21575928.388 -9891901.779 -9337660.514 10 0 60381 45900.00000 0 22442457.835 -10366696.395 -6278886.955 10 0 60381 46800.00000 0 22911031.048 -10772132.156 -3098103.595 10 0 60381 47700.00000 0 22987467.081 -11050130.361 142883.708 10 0 60381 48600.00000 0 22690934.994 -11146189.652 3381095.115 10 0 60381 49500.00000 0 22053028.180 -11011906.552 6553604.199 10 0 60381 50400.00000 0 21116333.999 -10607248.104 9598764.338 10 0 60381 51300.00000 0 19932559.599 -9902479.665 12457409.712 10 0 60381 52200.00000 0 18560293.389 -8879665.525 15074007.090 10 0 60381 53100.00000 0 17062496.980 -7533678.120 17397735.637 10 0 60381 54000.00000 0 15503833.548 -5872672.404 19383473.658 10 0 60381 54900.00000 0 13947945.160 -3918004.490 20992673.228 10 0 60381 55800.00000 0 12454793.521 -1703597.058 22194106.008 10 0 60381 56700.00000 0 11078175.524 725222.841 22964466.233 10 0 60381 57600.00000 0 9863517.380 3313365.961 23288819.729 10 0 60381 58500.00000 0 8846039.185 5998035.451 23160890.738 10 0 60381 59400.00000 0 8049366.062 8711109.189 22583181.455 10 0 60381 60300.00000 0 7484643.248 11381751.668 21566922.193 10 0 60381 61200.00000 0 7150191.389 13939147.635 20131853.243 10 0 60381 62100.00000 0 7031715.698 16315244.631 18305842.531 10 0 60381 63000.00000 0 7103059.517 18447391.091 16124346.187 10 0 60381 63900.00000 0 7327470.021 20280760.772 13629722.116 10 0 60381 64800.00000 0 7659322.321 21770463.082 10870409.460 10 0 60381 65700.00000 0 8046228.944 22883251.719 7899989.475 10 0 60381 66600.00000 0 8431445.330 23598760.587 4776145.829 10 0 60381 67500.00000 0 8756469.426 23910215.782 1559544.382 10 0 60381 68400.00000 0 8963725.131 23824594.211 -1687345.728 10 0 60381 69300.00000 0 8999215.695 23362222.584 -4901466.545 10 0 60381 70200.00000 0 8815034.322 22555834.069 -8020397.396 10 0 60381 71100.00000 0 8371625.185 21449122.648 -10983568.461 10 0 60381 72000.00000 0 7639698.607 20094856.520 -13733437.847 10 0 60381 72900.00000 0 6601718.780 18552630.140 -16216609.104 10 0 60381 73800.00000 0 5252900.388 16886349.691 -18384867.379 10 0 60381 74700.00000 0 3601671.233 15161557.729 -20196114.152 10 0 60381 75600.00000 0 1669580.334 13442709.213 -21615182.655 10 0 60381 76500.00000 0 -509345.791 11790512.970 -22614518.549 10 0 60381 77400.00000 0 -2889772.875 10259449.636 -23174713.025 10 0 60381 78300.00000 0 -5416707.070 8895569.473 -23284878.456 10 0 60381 79200.00000 0 -8027553.981 7734661.604 -22942859.592 10 0 60381 80100.00000 0 -10654503.939 6800870.601 -22155276.381 10 0 60381 81000.00000 0 -13227145.279 6105817.606 -20937397.564 10 0 60381 81900.00000 0 -15675197.844 5648262.116 -19312847.245 10 0 60381 82800.00000 0 -17931253.662 5414317.984 -17313149.735 10 0 60381 83700.00000 0 -19933411.303 5378213.986 -14977120.997 10 0 60381 84600.00000 0 -21627694.527 5503566.501 -12350117.918 10 0 60381 85500.00000 0 -22970154.535 5745110.278 -9483159.530 99